ARIANE 5 DEB (SYLDA), 44478

Orbit data source: Space-Track

ARIANE 5 DEB (SYLDA), 44478 is space debris originally from a launch on Tue, 06 Aug 2019 UTC launched from the French Guiana (FRGUI). Debris objects in space refer to the collection of defunct objects orbiting the Earth. Examples of debris include non-operational satellites, rocket bodies, and fragments generated from explosions, collisions, or faulty payload assembly.

Loading next visibility...
Identifier
44478, 2019-049D
Orbit
Active
Last TLE update
12 hours ago
Origin
Manufacturer
ADS/Bremen
Mission
Spacecraft
Bus & Motor
SYLDA 5, Unknown motor
Mass
440 kg wet, 440 kg dry
Launch date (UTC)
2019-08-06 (6 years ago)
Launch vehicle
Unknown
Launch site
French Guiana (FRGUI)
Object type
Payload
Rocket body
Debris
Shape & HBR
Cyl, 5.5 m
Radar Cross Section
27.391 m², Large (>1 m²)

Expand to show TLE details & history

TLE from 12 hours ago
0 ARIANE 5 DEB (SYLDA)
1 44478U 19049D   25186.48956888  .00315402  00000-0  58173-2 0  9999
2 44478   4.3163 133.9246 3553331  48.0746 337.2505  8.37494116 91802
Epoch: 2025-07-05T11:44Z
TLE epoch observation values (Epoch: 2025-07-05T11:44:58.751Z)
Latitude
-0.00001°
Longitude
33.95283°
Altitude
852.09 km
Speed
8.447 km/s
True Right ascension
08h 55m 41s
True Declination
0° 00' 00"
Sunlit
Object was in daylight at epoch
Visualization orbit readout
Latitude
1.04808°
Longitude
-161.28995°
Altitude
4,174.354 km
Speed
6.053 km/s
Apparent Right ascension
21h 07m 15s
Apparent Declination
-15° 50' 55"
Sunlit
Object is in full shadow
Visualization observer readout
Local Sidereal Time
11:55:35
Azimuth
68.911° E
Elevation
-46.287°
Doppler factor
1
Orbital elements
Apogee altitude
7,511.205 km
Perigee altitude
228.356 km
Semi-major axis
10,247.918 km
Eccentricity
0.35533
Inclination
4.3163°
RAAN
133.9246°
Arg. of periapsis
48.0746°
True anomaly
Unknown
Mean anomaly
337.2505°
Eccentric anomaly
Unknown
Mean motion
2.09214 °/min
Orbital period
172.07 mins
BSTAR
0.0058173
Loading maneuver chart data...
Loading SW <> Apogee altitude chart data...
Loading historical data...
Loading historical data...
Loading historical data...
Loading historical data...
Loading historical data...
Loading historical data...
Loading historical data...
Other satellites on launch #49 in the year 2019 (2019-08-06 UTC)

ARIANE 5 DEB (SYLDA) Visibility forecast

Observer location: undefined°, undefined°

Span
Click to sort rows by Start time (UTC) header in descending order
Start Az.
Max El. time (UTC)
Max El. Az.
Max El.
End time (UTC)
End Az.
41 mins2025-07-06 08:31:08.894Z202.687° SW2025-07-06 08:46:08.894Z169.017° S17.601°2025-07-06 09:12:08.894Z136.712° SSE
61 mins2025-07-06 11:44:08.894Z219.657° SW2025-07-06 12:13:08.894Z183.427° SSW20.059°2025-07-06 12:45:08.894Z145.836° SSE
33 mins2025-07-06 15:23:08.894Z219.373° SW2025-07-06 15:42:08.894Z196.562° SSW14.136°2025-07-06 15:56:08.894Z171.405° S
|